アサシン彗星

C/2018 N2 ( ASASSN )

English version
Home page
Updated on May 20, 2019

---------------------------------------------------------------------

・ プロフィール

発見日 2018年7月7日
発見光度 16.4等
発見者 All-Sky Automated Survey for Supernovae (ASASSN) program

・ 写真集

・ 軌道要素

Epoch 2019 Nov. 13.0 TT = JDT 2458800.5
T 2019 Nov. 10.95750 TT                                 MPCW
q   3.1246097            (2000.0)            P               Q
z  -0.0000670      Peri.   24.39610     +0.78558005     -0.45745189
 +/-0.0000034      Node    25.25955     +0.27012091     -0.35227652
e   1.0002093      Incl.   77.53164     +0.55668544     +0.81647965
From 395 observations 2018 July 11-2019 Feb. 16, mean residual 0".4.

・ 星図

・ 光度変化

        m1 = 4.0 + 5 logΔ + 10.0 log r

---------------------------------------------------------------------

軌道要素はM.P.E.C. 2019-J142に掲載されたものです。
星図はステラナビゲータ Ver.10 (アストロアーツ) で作成したものです。
光度グラフはComet for Windowsで作成したものです。

---------------------------------------------------------------------

Copyright(C) Seiichi Yoshida (comet@aerith.net). All rights reserved.